Time,TemperatureF,DewpointF,PressureIn,WindDirection,WindDirectionDegrees,WindSpeedMPH,WindSpeedGustMPH,Humidity,HourlyPrecipIn,Conditions,Clouds,dailyrainin,SoftwareType,DateUTC
2013-05-01 00:02:00,63.5,62.0,30.10,East,98,1.0,10.0,95,0.00,,,0.02,Wunderground v.1.15,2013-05-01 04:02:00,
2013-05-01 00:04:00,63.6,62.1,30.10,North,2,1.0,10.0,95,0.00,,,0.00,Wunderground v.1.15,2013-05-01 04:04:00,
2013-05-01 00:06:00,63.6,62.1,30.11,ENE,61,1.0,10.0,95,0.00,,,0.00,Wunderground v.1.15,2013-05-01 04:06:00,
2013-05-01 00:12:00,63.7,62.2,30.11,ENE,65,0.0,10.0,95,0.00,,,0.00,Wunderground v.1.15,2013-05-01 04:12:00,
2013-05-01 00:18:00,63.6,62.1,30.11,NE,56,0.0,10.0,95,0.00,,,0.00,Wunderground v.1.15,2013-05-01 04:18:00,
2013-05-01 00:24:00,63.6,62.1,30.10,NW,320,1.0,10.0,95,0.00,,,0.00,Wunderground v.1.15,2013-05-01 04:24:00,
2013-05-01 00:30:00,63.4,61.9,30.11,NNW,344,0.0,10.0,95,0.00,,,0.00,Wunderground v.1.15,2013-05-01 04:30:00,
2013-05-01 00:36:00,63.3,61.8,30.11,NNW,333,0.0,10.0,95,0.00,,,0.00,Wunderground v.1.15,2013-05-01 04:36:00,
2013-05-01 00:42:00,63.2,61.7,30.11,North,359,0.0,10.0,95,0.00,,,0.00,Wunderground v.1.15,2013-05-01 04:42:00,
2013-05-01 00:48:00,63.1,61.6,30.11,NNE,26,0.0,10.0,95,0.00,,,0.00,Wunderground v.1.15,2013-05-01 04:48:00,
2013-05-01 00:54:00,62.9,61.4,30.11,NNE,26,0.0,10.0,95,0.00,,,0.00,Wunderground v.1.15,2013-05-01 04:54:00,
2013-05-01 01:00:00,62.7,61.2,30.11,NNE,26,0.0,10.0,95,0.00,,,0.00,Wunderground v.1.15,2013-05-01 05:00:00,
2013-05-01 01:06:00,62.5,61.0,30.11,NNE,26,0.0,10.0,95,0.00,,,0.00,Wunderground v.1.15,2013-05-01 05:06:00,
2013-05-01 01:12:00,62.3,60.8,30.11,NNE,26,0.0,10.0,95,0.00,,,0.00,Wunderground v.1.15,2013-05-01 05:12:00,
2013-05-01 01:18:00,62.1,60.9,30.11,West,269,0.0,10.0,96,0.00,,,0.00,Wunderground v.1.15,2013-05-01 05:18:00,
2013-05-01 01:24:00,62.0,60.8,30.11,WNW,303,0.0,10.0,96,0.00,,,0.00,Wunderground v.1.15,2013-05-01 05:24:00,
2013-05-01 01:30:00,61.9,60.7,30.11,NW,307,0.0,10.0,96,0.00,,,0.00,Wunderground v.1.15,2013-05-01 05:30:00,
2013-05-01 01:36:00,61.6,60.4,30.10,NW,307,0.0,10.0,96,0.00,,,0.00,Wunderground v.1.15,2013-05-01 05:36:00,
2013-05-01 01:42:00,61.5,60.3,30.10,NE,34,0.0,10.0,96,0.00,,,0.00,Wunderground v.1.15,2013-05-01 05:42:00,
2013-05-01 01:48:00,61.4,60.2,30.10,NNW,329,0.0,10.0,96,0.00,,,0.00,Wunderground v.1.15,2013-05-01 05:48:00,
2013-05-01 01:54:00,61.3,60.2,30.10,NNW,329,0.0,10.0,96,0.00,,,0.00,Wunderground v.1.15,2013-05-01 05:54:00,
2013-05-01 02:00:00,61.2,60.1,30.10,NNW,329,0.0,10.0,96,0.00,,,0.00,Wunderground v.1.15,2013-05-01 06:00:00,
2013-05-01 02:06:00,61.0,59.9,30.10,NNW,329,0.0,10.0,96,0.00,,,0.00,Wunderground v.1.15,2013-05-01 06:06:00,
2013-05-01 02:12:00,60.9,59.8,30.09,NNW,329,0.0,10.0,96,0.00,,,0.00,Wunderground v.1.15,2013-05-01 06:12:00,
2013-05-01 02:18:00,60.7,59.6,30.09,NNW,329,0.0,10.0,96,0.00,,,0.00,Wunderground v.1.15,2013-05-01 06:18:00,
2013-05-01 02:24:00,60.6,59.5,30.09,NNW,328,0.0,10.0,96,0.00,,,0.00,Wunderground v.1.15,2013-05-01 06:24:00,
2013-05-01 02:30:00,60.4,59.3,30.09,NW,307,0.0,10.0,96,0.00,,,0.00,Wunderground v.1.15,2013-05-01 06:30:00,
2013-05-01 02:36:00,60.3,59.2,30.09,NW,307,0.0,10.0,96,0.00,,,0.00,Wunderground v.1.15,2013-05-01 06:36:00,
2013-05-01 02:42:00,60.2,59.1,30.09,NW,307,0.0,10.0,96,0.00,,,0.00,Wunderground v.1.15,2013-05-01 06:42:00,
2013-05-01 02:48:00,60.0,58.9,30.09,NW,307,0.0,10.0,96,0.00,,,0.00,Wunderground v.1.15,2013-05-01 06:48:00,
2013-05-01 02:54:00,60.0,58.9,30.09,NW,307,0.0,10.0,96,0.00,,,0.00,Wunderground v.1.15,2013-05-01 06:54:00,
2013-05-01 03:00:00,59.8,58.7,30.09,NW,307,0.0,10.0,96,0.00,,,0.00,Wunderground v.1.15,2013-05-01 07:00:00,
2013-05-01 03:06:00,59.6,58.5,30.08,NW,307,0.0,10.0,96,0.00,,,0.00,Wunderground v.1.15,2013-05-01 07:06:00,
2013-05-01 03:12:00,59.2,58.1,30.09,NW,307,0.0,10.0,96,0.00,,,0.00,Wunderground v.1.15,2013-05-01 07:12:00,
2013-05-01 03:18:00,59.0,57.9,30.09,NW,307,0.0,10.0,96,0.00,,,0.00,Wunderground v.1.15,2013-05-01 07:18:00,
2013-05-01 03:24:00,58.8,58.0,30.09,NE,56,0.0,10.0,97,0.00,,,0.00,Wunderground v.1.15,2013-05-01 07:24:00,
2013-05-01 03:30:00,58.9,58.1,30.09,NE,51,0.0,10.0,97,0.00,,,0.00,Wunderground v.1.15,2013-05-01 07:30:00,
2013-05-01 03:36:00,58.8,58.0,30.09,NNE,20,0.0,10.0,97,0.00,,,0.00,Wunderground v.1.15,2013-05-01 07:36:00,
2013-05-01 03:42:00,58.7,57.9,30.09,NNW,342,0.0,10.0,97,0.00,,,0.00,Wunderground v.1.15,2013-05-01 07:42:00,
2013-05-01 03:48:00,58.7,57.9,30.09,East,79,0.0,10.0,97,0.00,,,0.00,Wunderground v.1.15,2013-05-01 07:48:00,
2013-05-01 03:54:00,58.6,57.8,30.09,East,79,0.0,10.0,97,0.00,,,0.00,Wunderground v.1.15,2013-05-01 07:54:00,
2013-05-01 04:00:00,58.5,57.7,30.09,East,79,0.0,10.0,97,0.00,,,0.00,Wunderground v.1.15,2013-05-01 08:00:00,
2013-05-01 04:06:00,58.4,57.6,30.09,WNW,300,0.0,10.0,97,0.00,,,0.00,Wunderground v.1.15,2013-05-01 08:06:00,
2013-05-01 04:12:00,58.3,57.5,30.09,WNW,300,0.0,10.0,97,0.00,,,0.00,Wunderground v.1.15,2013-05-01 08:12:00,
2013-05-01 04:18:00,58.3,57.5,30.09,ENE,68,0.0,10.0,97,0.00,,,0.00,Wunderground v.1.15,2013-05-01 08:18:00,
2013-05-01 04:24:00,58.2,57.4,30.09,NNW,340,0.0,10.0,97,0.00,,,0.00,Wunderground v.1.15,2013-05-01 08:24:00,
2013-05-01 04:30:00,58.1,57.3,30.09,North,350,0.0,10.0,97,0.00,,,0.00,Wunderground v.1.15,2013-05-01 08:30:00,
2013-05-01 04:36:00,58.1,57.3,30.09,NW,326,0.0,10.0,97,0.00,,,0.01,Wunderground v.1.15,2013-05-01 08:36:00,
2013-05-01 04:42:00,58.0,57.2,30.09,NNW,336,0.0,10.0,97,0.00,,,0.01,Wunderground v.1.15,2013-05-01 08:42:00,
2013-05-01 04:48:00,57.9,57.1,30.09,NNE,15,0.0,10.0,97,0.00,,,0.01,Wunderground v.1.15,2013-05-01 08:48:00,
2013-05-01 04:54:00,57.9,57.1,30.09,NNE,30,0.0,10.0,97,0.00,,,0.01,Wunderground v.1.15,2013-05-01 08:54:00,
2013-05-01 05:00:00,57.8,57.0,30.09,WNW,289,0.0,10.0,97,0.00,,,0.01,Wunderground v.1.15,2013-05-01 09:00:00,
2013-05-01 05:06:00,57.8,57.0,30.09,NNW,334,0.0,10.0,97,0.00,,,0.01,Wunderground v.1.15,2013-05-01 09:06:00,
2013-05-01 05:12:00,57.8,57.0,30.09,ENE,77,0.0,10.0,97,0.00,,,0.01,Wunderground v.1.15,2013-05-01 09:12:00,
2013-05-01 05:18:00,57.7,56.9,30.09,NNW,342,0.0,10.0,97,0.00,,,0.01,Wunderground v.1.15,2013-05-01 09:18:00,
2013-05-01 05:24:00,57.6,56.8,30.09,NE,51,0.0,10.0,97,0.00,,,0.01,Wunderground v.1.15,2013-05-01 09:24:00,
2013-05-01 05:30:00,57.6,56.8,30.10,West,281,0.0,10.0,97,0.00,,,0.01,Wunderground v.1.15,2013-05-01 09:30:00,
2013-05-01 05:36:00,57.5,56.7,30.10,ENE,75,0.0,10.0,97,0.00,,,0.01,Wunderground v.1.15,2013-05-01 09:36:00,
2013-05-01 05:42:00,57.5,56.7,30.10,WNW,288,0.0,10.0,97,0.00,,,0.01,Wunderground v.1.15,2013-05-01 09:42:00,
2013-05-01 05:48:00,57.4,56.6,30.10,NNE,23,0.0,10.0,97,0.00,,,0.01,Wunderground v.1.15,2013-05-01 09:48:00,
2013-05-01 05:54:00,57.4,56.6,30.10,North,358,0.0,10.0,97,0.00,,,0.01,Wunderground v.1.15,2013-05-01 09:54:00,
2013-05-01 06:00:00,57.6,56.8,30.11,North,352,0.0,10.0,97,0.00,,,0.01,Wunderground v.1.15,2013-05-01 10:00:00,
2013-05-01 06:06:00,57.7,56.9,30.11,ESE,117,1.0,10.0,97,0.00,,,0.01,Wunderground v.1.15,2013-05-01 10:06:00,
2013-05-01 06:12:00,57.9,57.1,30.11,NW,316,2.0,10.0,97,0.00,,,0.01,Wunderground v.1.15,2013-05-01 10:12:00,
2013-05-01 06:18:00,58.0,57.2,30.11,NNE,25,2.0,10.0,97,0.00,,,0.01,Wunderground v.1.15,2013-05-01 10:18:00,
2013-05-01 06:24:00,58.0,57.2,30.12,NE,38,1.0,10.0,97,0.00,,,0.01,Wunderground v.1.15,2013-05-01 10:24:00,
2013-05-01 06:30:00,58.0,57.2,30.12,NNE,20,1.0,1.0,97,0.00,,,0.01,Wunderground v.1.15,2013-05-01 10:30:00,
2013-05-01 06:36:00,58.1,57.0,30.12,NNE,21,1.0,10.0,96,0.00,,,0.01,Wunderground v.1.15,2013-05-01 10:36:00,
2013-05-01 06:42:00,58.2,57.1,30.13,NE,40,2.0,10.0,96,0.00,,,0.01,Wunderground v.1.15,2013-05-01 10:42:00,
2013-05-01 06:48:00,58.3,57.2,30.13,North,11,2.0,10.0,96,0.00,,,0.01,Wunderground v.1.15,2013-05-01 10:48:00,
2013-05-01 06:54:00,58.4,57.0,30.13,NNW,341,1.0,10.0,95,0.00,,,0.01,Wunderground v.1.15,2013-05-01 10:54:00,
2013-05-01 07:00:00,58.5,57.1,30.13,North,354,1.0,1.0,95,0.00,,,0.01,Wunderground v.1.15,2013-05-01 11:00:00,
2013-05-01 07:06:00,58.5,57.1,30.13,NE,38,1.0,10.0,95,0.00,,,0.01,Wunderground v.1.15,2013-05-01 11:06:00,
2013-05-01 07:12:00,58.5,57.1,30.13,NNE,13,1.0,10.0,95,0.00,,,0.01,Wunderground v.1.15,2013-05-01 11:12:00,
2013-05-01 07:18:00,58.6,56.9,30.13,East,79,1.0,10.0,94,0.00,,,0.01,Wunderground v.1.15,2013-05-01 11:18:00,
2013-05-01 07:24:00,58.7,57.0,30.13,NNW,335,2.0,10.0,94,0.00,,,0.01,Wunderground v.1.15,2013-05-01 11:24:00,
2013-05-01 07:30:00,58.7,57.0,30.13,NE,55,1.0,1.0,94,0.00,,,0.01,Wunderground v.1.15,2013-05-01 11:30:00,
2013-05-01 07:36:00,58.7,57.0,30.13,NE,41,1.0,10.0,94,0.00,,,0.01,Wunderground v.1.15,2013-05-01 11:36:00,
2013-05-01 07:42:00,58.8,57.1,30.13,NNW,327,1.0,10.0,94,0.00,,,0.01,Wunderground v.1.15,2013-05-01 11:42:00,
2013-05-01 07:48:00,58.8,57.1,30.13,ENE,60,1.0,10.0,94,0.00,,,0.01,Wunderground v.1.15,2013-05-01 11:48:00,
2013-05-01 07:54:00,58.8,57.1,30.13,NNE,19,1.0,10.0,94,0.00,,,0.01,Wunderground v.1.15,2013-05-01 11:54:00,
2013-05-01 08:00:00,58.8,57.1,30.13,NNW,340,1.0,1.0,94,0.00,,,0.01,Wunderground v.1.15,2013-05-01 12:00:00,
2013-05-01 08:06:00,58.9,57.2,30.14,ESE,119,1.0,10.0,94,0.00,,,0.01,Wunderground v.1.15,2013-05-01 12:06:00,
2013-05-01 08:12:00,59.0,57.3,30.14,ESE,115,1.0,10.0,94,0.00,,,0.01,Wunderground v.1.15,2013-05-01 12:12:00,
2013-05-01 08:18:00,59.0,57.0,30.15,NE,38,1.0,10.0,93,0.00,,,0.01,Wunderground v.1.15,2013-05-01 12:18:00,
2013-05-01 08:24:00,59.1,57.1,30.15,NNW,339,1.0,10.0,93,0.00,,,0.01,Wunderground v.1.15,2013-05-01 12:24:00,
2013-05-01 08:30:00,59.2,57.2,30.15,WSW,238,1.0,10.0,93,0.00,,,0.01,Wunderground v.1.15,2013-05-01 12:30:00,
2013-05-01 08:36:00,59.4,57.4,30.15,North,357,1.0,10.0,93,0.00,,,0.01,Wunderground v.1.15,2013-05-01 12:36:00,
2013-05-01 08:42:00,59.6,57.6,30.15,NW,321,1.0,10.0,93,0.00,,,0.01,Wunderground v.1.15,2013-05-01 12:42:00,
2013-05-01 08:48:00,59.7,57.1,30.15,NE,38,1.0,10.0,91,0.00,,,0.01,Wunderground v.1.15,2013-05-01 12:48:00,
2013-05-01 08:54:00,59.8,57.5,30.16,North,352,2.0,10.0,92,0.00,,,0.01,Wunderground v.1.15,2013-05-01 12:54:00,
2013-05-01 09:00:00,60.0,57.1,30.16,ESE,109,1.0,10.0,90,0.00,,,0.01,Wunderground v.1.15,2013-05-01 13:00:00,
2013-05-01 09:06:00,60.1,57.2,30.16,East,89,1.0,10.0,90,0.00,,,0.01,Wunderground v.1.15,2013-05-01 13:06:00,
2013-05-01 09:12:00,60.3,57.7,30.16,NNE,12,1.0,10.0,91,0.00,,,0.01,Wunderground v.1.15,2013-05-01 13:12:00,
2013-05-01 09:18:00,60.5,57.9,30.16,ENE,58,1.0,10.0,91,0.00,,,0.01,Wunderground v.1.15,2013-05-01 13:18:00,
2013-05-01 09:24:00,60.6,58.0,30.16,NNW,347,1.0,10.0,91,0.00,,,0.01,Wunderground v.1.15,2013-05-01 13:24:00,
2013-05-01 09:30:00,60.8,57.5,30.16,NE,56,1.0,1.0,89,0.00,,,0.01,Wunderground v.1.15,2013-05-01 13:30:00,
2013-05-01 09:36:00,60.9,57.6,30.16,NE,48,1.0,10.0,89,0.00,,,0.01,Wunderground v.1.15,2013-05-01 13:36:00,
2013-05-01 09:42:00,61.2,57.9,30.17,SSE,147,1.0,10.0,89,0.00,,,0.01,Wunderground v.1.15,2013-05-01 13:42:00,
2013-05-01 09:48:00,61.3,57.7,30.16,NW,313,1.0,10.0,88,0.00,,,0.01,Wunderground v.1.15,2013-05-01 13:48:00,
2013-05-01 09:54:00,61.4,58.1,30.16,North,10,1.0,10.0,89,0.00,,,0.01,Wunderground v.1.15,2013-05-01 13:54:00,
2013-05-01 10:00:00,61.6,58.0,30.16,NNW,345,1.0,10.0,88,0.00,,,0.01,Wunderground v.1.15,2013-05-01 14:00:00,
2013-05-01 10:06:00,61.8,57.9,30.17,NE,51,1.0,10.0,87,0.00,,,0.01,Wunderground v.1.15,2013-05-01 14:06:00,
2013-05-01 10:12:00,62.1,58.2,30.17,North,5,1.0,10.0,87,0.00,,,0.01,Wunderground v.1.15,2013-05-01 14:12:00,
2013-05-01 10:18:00,62.4,58.5,30.17,ENE,77,2.0,10.0,87,0.00,,,0.01,Wunderground v.1.15,2013-05-01 14:18:00,
2013-05-01 10:24:00,63.0,58.7,30.17,NNE,24,1.0,10.0,86,0.00,,,0.01,Wunderground v.1.15,2013-05-01 14:24:00,
2013-05-01 10:30:00,63.5,59.2,30.17,ENE,75,1.0,10.0,86,0.00,,,0.01,Wunderground v.1.15,2013-05-01 14:30:00,
2013-05-01 10:36:00,63.7,58.4,30.17,SW,233,2.0,10.0,83,0.00,,,0.01,Wunderground v.1.15,2013-05-01 14:36:00,
2013-05-01 10:42:00,63.9,58.6,30.17,SSE,151,1.0,10.0,83,0.00,,,0.01,Wunderground v.1.15,2013-05-01 14:42:00,
2013-05-01 10:48:00,64.2,58.2,30.17,NNE,14,2.0,10.0,81,0.00,,,0.01,Wunderground v.1.15,2013-05-01 14:48:00,
2013-05-01 10:54:00,64.7,58.4,30.18,NE,56,2.0,10.0,80,0.00,,,0.01,Wunderground v.1.15,2013-05-01 14:54:00,
2013-05-01 11:00:00,64.9,58.2,30.18,ENE,76,2.0,10.0,79,0.00,,,0.01,Wunderground v.1.15,2013-05-01 15:00:00,
2013-05-01 11:06:00,65.0,58.0,30.18,SSE,161,3.0,10.0,78,0.00,,,0.01,Wunderground v.1.15,2013-05-01 15:06:00,
2013-05-01 11:12:00,65.1,58.1,30.18,ENE,63,3.0,10.0,78,0.00,,,0.01,Wunderground v.1.15,2013-05-01 15:12:00,
2013-05-01 11:18:00,65.1,58.8,30.18,East,94,3.0,10.0,80,0.00,,,0.01,Wunderground v.1.15,2013-05-01 15:18:00,
2013-05-01 11:24:00,65.6,59.3,30.19,SSE,152,1.0,10.0,80,0.00,,,0.01,Wunderground v.1.15,2013-05-01 15:24:00,
2013-05-01 11:30:00,66.0,58.9,30.18,NNW,346,1.0,10.0,78,0.00,,,0.01,Wunderground v.1.15,2013-05-01 15:30:00,
2013-05-01 11:36:00,66.0,59.3,30.18,NNW,348,2.0,10.0,79,0.00,,,0.01,Wunderground v.1.15,2013-05-01 15:36:00,
2013-05-01 11:42:00,66.1,59.7,30.18,NE,34,2.0,10.0,80,0.00,,,0.01,Wunderground v.1.15,2013-05-01 15:42:00,
2013-05-01 11:48:00,66.4,59.7,30.17,NE,49,1.0,10.0,79,0.00,,,0.01,Wunderground v.1.15,2013-05-01 15:48:00,
2013-05-01 11:54:00,66.4,59.7,30.17,ESE,108,1.0,10.0,79,0.00,,,0.01,Wunderground v.1.15,2013-05-01 15:54:00,
2013-05-01 12:00:00,66.6,59.2,30.17,NW,309,2.0,10.0,77,0.00,,,0.01,Wunderground v.1.15,2013-05-01 16:00:00,
2013-05-01 12:06:00,67.0,59.2,30.16,WNW,292,2.0,10.0,76,0.00,,,0.01,Wunderground v.1.15,2013-05-01 16:06:00,
2013-05-01 12:12:00,67.3,59.8,30.16,East,90,2.0,10.0,77,0.00,,,0.01,Wunderground v.1.15,2013-05-01 16:12:00,
2013-05-01 12:18:00,67.3,59.8,30.15,NE,52,2.0,10.0,77,0.00,,,0.01,Wunderground v.1.15,2013-05-01 16:18:00,
2013-05-01 12:24:00,67.1,58.9,30.15,NNW,348,2.0,10.0,75,0.00,,,0.01,Wunderground v.1.15,2013-05-01 16:24:00,
2013-05-01 12:30:00,67.5,60.4,30.15,North,354,2.0,10.0,78,0.00,,,0.01,Wunderground v.1.15,2013-05-01 16:30:00,
2013-05-01 12:36:00,67.9,59.3,30.15,NE,43,2.0,10.0,74,0.00,,,0.01,Wunderground v.1.15,2013-05-01 16:36:00,
2013-05-01 12:42:00,68.7,60.1,30.15,SE,142,3.0,10.0,74,0.00,,,0.01,Wunderground v.1.15,2013-05-01 16:42:00,
2013-05-01 12:48:00,69.5,59.7,30.15,East,88,4.0,10.0,71,0.00,,,0.01,Wunderground v.1.15,2013-05-01 16:48:00,
2013-05-01 12:54:00,69.7,60.3,30.15,ENE,61,4.0,10.0,72,0.00,,,0.01,Wunderground v.1.15,2013-05-01 16:54:00,
2013-05-01 13:00:00,69.3,59.5,30.15,SSE,167,3.0,10.0,71,0.00,,,0.01,Wunderground v.1.15,2013-05-01 17:00:00,
2013-05-01 13:06:00,69.2,59.8,30.15,WNW,291,2.0,10.0,72,0.00,,,0.01,Wunderground v.1.15,2013-05-01 17:06:00,
2013-05-01 13:12:00,68.8,60.6,30.15,NE,49,2.0,10.0,75,0.00,,,0.01,Wunderground v.1.15,2013-05-01 17:12:00,
2013-05-01 13:18:00,68.7,59.7,30.16,SSE,147,2.0,10.0,73,0.00,,,0.01,Wunderground v.1.15,2013-05-01 17:18:00,
2013-05-01 13:24:00,69.1,60.1,30.16,NNE,31,1.0,10.0,73,0.00,,,0.01,Wunderground v.1.15,2013-05-01 17:24:00,
2013-05-01 13:30:00,68.8,59.4,30.15,NE,46,1.0,10.0,72,0.00,,,0.01,Wunderground v.1.15,2013-05-01 17:30:00,
2013-05-01 13:36:00,68.7,59.7,30.16,NW,308,2.0,10.0,73,0.00,,,0.01,Wunderground v.1.15,2013-05-01 17:36:00,
2013-05-01 13:42:00,69.0,60.0,30.16,NNE,12,2.0,10.0,73,0.00,,,0.01,Wunderground v.1.15,2013-05-01 17:42:00,
2013-05-01 13:48:00,69.6,60.2,30.16,East,91,2.0,10.0,72,0.00,,,0.01,Wunderground v.1.15,2013-05-01 17:48:00,
2013-05-01 13:54:00,70.7,60.0,30.16,NW,318,2.0,10.0,69,0.00,,,0.01,Wunderground v.1.15,2013-05-01 17:54:00,
2013-05-01 14:00:00,70.9,60.2,30.16,NE,48,2.0,10.0,69,0.00,,,0.01,Wunderground v.1.15,2013-05-01 18:00:00,
2013-05-01 14:06:00,71.8,61.5,30.16,North,11,2.0,10.0,70,0.00,,,0.01,Wunderground v.1.15,2013-05-01 18:06:00,
2013-05-01 14:12:00,72.8,61.6,30.16,NNE,13,2.0,10.0,68,0.00,,,0.01,Wunderground v.1.15,2013-05-01 18:12:00,
2013-05-01 14:18:00,72.4,60.4,30.16,ENE,75,2.0,10.0,66,0.00,,,0.01,Wunderground v.1.15,2013-05-01 18:18:00,
2013-05-01 14:24:00,72.0,60.4,30.16,ESE,102,2.0,10.0,67,0.00,,,0.01,Wunderground v.1.15,2013-05-01 18:24:00,
2013-05-01 14:30:00,72.1,59.2,30.16,NW,307,1.0,10.0,64,0.00,,,0.01,Wunderground v.1.15,2013-05-01 18:30:00,
2013-05-01 14:36:00,73.1,61.1,30.15,East,98,1.0,10.0,66,0.00,,,0.01,Wunderground v.1.15,2013-05-01 18:36:00,
2013-05-01 14:42:00,73.1,60.2,30.15,SE,146,2.0,10.0,64,0.00,,,0.01,Wunderground v.1.15,2013-05-01 18:42:00,
2013-05-01 14:48:00,73.3,60.4,30.15,SSE,162,3.0,10.0,64,0.00,,,0.01,Wunderground v.1.15,2013-05-01 18:48:00,
2013-05-01 14:54:00,73.4,59.6,30.15,SE,134,3.0,10.0,62,0.00,,,0.01,Wunderground v.1.15,2013-05-01 18:54:00,
2013-05-01 15:00:00,74.1,61.6,30.15,North,6,2.0,2.0,65,0.00,,,0.01,Wunderground v.1.15,2013-05-01 19:00:00,
2013-05-01 15:06:00,73.5,60.6,30.14,East,79,2.0,10.0,64,0.00,,,0.01,Wunderground v.1.15,2013-05-01 19:06:00,
2013-05-01 15:12:00,73.7,60.3,30.14,ESE,110,2.0,10.0,63,0.00,,,0.01,Wunderground v.1.15,2013-05-01 19:12:00,
2013-05-01 15:18:00,73.7,60.3,30.14,SE,141,2.0,10.0,63,0.00,,,0.01,Wunderground v.1.15,2013-05-01 19:18:00,
2013-05-01 15:24:00,73.7,60.3,30.14,West,262,2.0,10.0,63,0.00,,,0.01,Wunderground v.1.15,2013-05-01 19:24:00,
2013-05-01 15:30:00,73.6,61.5,30.14,ENE,61,2.0,10.0,66,0.00,,,0.01,Wunderground v.1.15,2013-05-01 19:30:00,
2013-05-01 15:36:00,73.1,60.2,30.14,East,93,2.0,10.0,64,0.00,,,0.01,Wunderground v.1.15,2013-05-01 19:36:00,
2013-05-01 15:42:00,73.3,62.1,30.14,ESE,120,2.0,10.0,68,0.00,,,0.01,Wunderground v.1.15,2013-05-01 19:42:00,
2013-05-01 15:48:00,73.5,61.0,30.14,SSE,158,2.0,10.0,65,0.00,,,0.01,Wunderground v.1.15,2013-05-01 19:48:00,
2013-05-01 15:54:00,73.7,61.6,30.14,WSW,248,2.0,10.0,66,0.00,,,0.01,Wunderground v.1.15,2013-05-01 19:54:00,
2013-05-01 16:00:00,74.4,63.1,30.14,SSE,165,1.0,10.0,68,0.00,,,0.01,Wunderground v.1.15,2013-05-01 20:00:00,
2013-05-01 16:06:00,73.6,62.0,30.14,SSE,167,2.0,10.0,67,0.00,,,0.01,Wunderground v.1.15,2013-05-01 20:06:00,
2013-05-01 16:12:00,72.5,62.2,30.14,South,177,4.0,10.0,70,0.00,,,0.01,Wunderground v.1.15,2013-05-01 20:12:00,
2013-05-01 16:18:00,72.3,62.4,30.14,South,186,4.0,10.0,71,0.00,,,0.01,Wunderground v.1.15,2013-05-01 20:18:00,
2013-05-01 16:24:00,72.3,62.8,30.14,East,89,3.0,10.0,72,0.00,,,0.01,Wunderground v.1.15,2013-05-01 20:24:00,
2013-05-01 16:30:00,71.8,61.9,30.14,ESE,103,3.0,10.0,71,0.00,,,0.01,Wunderground v.1.15,2013-05-01 20:30:00,
2013-05-01 16:36:00,71.2,62.1,30.13,SSE,153,4.0,10.0,73,0.00,,,0.01,Wunderground v.1.15,2013-05-01 20:36:00,
2013-05-01 16:42:00,70.4,61.3,30.14,SSE,167,4.0,10.0,73,0.00,,,0.01,Wunderground v.1.15,2013-05-01 20:42:00,
2013-05-01 16:48:00,69.8,61.1,30.14,SE,134,5.0,10.0,74,0.00,,,0.01,Wunderground v.1.15,2013-05-01 20:48:00,
2013-05-01 16:54:00,69.4,61.9,30.14,SE,127,3.0,10.0,77,0.00,,,0.01,Wunderground v.1.15,2013-05-01 20:54:00,
2013-05-01 17:00:00,69.0,61.5,30.14,East,89,4.0,7.0,77,0.00,,,0.01,Wunderground v.1.15,2013-05-01 21:00:00,
2013-05-01 17:06:00,68.7,61.2,30.14,ESE,113,4.0,7.0,77,0.00,,,0.01,Wunderground v.1.15,2013-05-01 21:06:00,
2013-05-01 17:12:00,68.8,62.0,30.14,SE,141,4.0,5.0,79,0.00,,,0.01,Wunderground v.1.15,2013-05-01 21:12:00,
2013-05-01 17:18:00,68.9,61.8,30.14,SE,138,3.0,5.0,78,0.00,,,0.01,Wunderground v.1.15,2013-05-01 21:18:00,
2013-05-01 17:24:00,68.9,61.4,30.14,East,100,3.0,4.0,77,0.00,,,0.01,Wunderground v.1.15,2013-05-01 21:24:00,
2013-05-01 17:30:00,68.7,61.2,30.15,East,96,3.0,4.0,77,0.00,,,0.01,Wunderground v.1.15,2013-05-01 21:30:00,
2013-05-01 17:36:00,68.4,61.3,30.15,SE,146,2.0,11.0,78,0.00,,,0.01,Wunderground v.1.15,2013-05-01 21:36:00,
2013-05-01 17:42:00,68.3,61.5,30.15,SE,127,2.0,11.0,79,0.00,,,0.01,Wunderground v.1.15,2013-05-01 21:42:00,
2013-05-01 17:48:00,68.2,61.4,30.15,ENE,74,2.0,11.0,79,0.00,,,0.01,Wunderground v.1.15,2013-05-01 21:48:00,
2013-05-01 17:54:00,68.1,61.7,30.15,ESE,104,2.0,11.0,80,0.00,,,0.01,Wunderground v.1.15,2013-05-01 21:54:00,
2013-05-01 18:00:00,68.0,61.9,30.15,SE,134,1.0,11.0,81,0.00,,,0.01,Wunderground v.1.15,2013-05-01 22:00:00,
2013-05-01 18:06:00,67.9,61.5,30.15,ESE,105,1.0,11.0,80,0.00,,,0.01,Wunderground v.1.15,2013-05-01 22:06:00,
2013-05-01 18:12:00,67.9,61.5,30.15,East,86,1.0,11.0,80,0.00,,,0.01,Wunderground v.1.15,2013-05-01 22:12:00,
2013-05-01 18:18:00,67.9,61.5,30.15,East,91,1.0,11.0,80,0.00,,,0.01,Wunderground v.1.15,2013-05-01 22:18:00,
2013-05-01 18:24:00,67.8,61.8,30.15,ESE,104,1.0,11.0,81,0.00,,,0.01,Wunderground v.1.15,2013-05-01 22:24:00,
2013-05-01 18:30:00,67.7,61.7,30.15,East,98,1.0,11.0,81,0.00,,,0.01,Wunderground v.1.15,2013-05-01 22:30:00,
2013-05-01 18:36:00,67.6,61.9,30.14,SE,130,1.0,11.0,82,0.00,,,0.01,Wunderground v.1.15,2013-05-01 22:36:00,
2013-05-01 18:42:00,67.4,61.7,30.14,East,89,2.0,11.0,82,0.00,,,0.01,Wunderground v.1.15,2013-05-01 22:42:00,
2013-05-01 18:48:00,67.3,62.0,30.14,SE,128,2.0,11.0,83,0.00,,,0.01,Wunderground v.1.15,2013-05-01 22:48:00,
2013-05-01 18:54:00,67.1,62.1,30.14,ESE,121,2.0,11.0,84,0.00,,,0.01,Wunderground v.1.15,2013-05-01 22:54:00,
2013-05-01 19:00:00,67.0,62.3,30.14,ESE,108,2.0,11.0,85,0.00,,,0.01,Wunderground v.1.15,2013-05-01 23:00:00,
2013-05-01 19:06:00,66.8,62.1,30.15,East,85,1.0,11.0,85,0.00,,,0.01,Wunderground v.1.15,2013-05-01 23:06:00,
2013-05-01 19:12:00,66.5,62.2,30.15,ESE,110,2.0,11.0,86,0.00,,,0.01,Wunderground v.1.15,2013-05-01 23:12:00,
2013-05-01 19:18:00,66.2,62.2,30.15,East,88,2.0,11.0,87,0.00,,,0.01,Wunderground v.1.15,2013-05-01 23:18:00,
2013-05-01 19:24:00,65.8,62.1,30.15,SE,139,2.0,11.0,88,0.00,,,0.01,Wunderground v.1.15,2013-05-01 23:24:00,
2013-05-01 19:30:00,65.6,62.3,30.15,East,92,1.0,11.0,89,0.00,,,0.01,Wunderground v.1.15,2013-05-01 23:30:00,
2013-05-01 19:36:00,65.3,62.3,30.15,East,94,1.0,11.0,90,0.00,,,0.01,Wunderground v.1.15,2013-05-01 23:36:00,
2013-05-01 19:42:00,65.2,62.5,30.15,East,86,1.0,11.0,91,0.00,,,0.01,Wunderground v.1.15,2013-05-01 23:42:00,
2013-05-01 19:48:00,65.1,62.4,30.15,North,352,1.0,11.0,91,0.00,,,0.01,Wunderground v.1.15,2013-05-01 23:48:00,
2013-05-01 19:54:00,65.0,62.6,30.15,North,359,1.0,11.0,92,0.00,,,0.01,Wunderground v.1.15,2013-05-01 23:54:00,
2013-05-01 20:00:00,64.9,62.5,30.16,NNE,30,1.0,11.0,92,0.00,,,0.01,Wunderground v.1.15,2013-05-02 00:00:00,
2013-05-01 20:06:00,64.9,62.5,30.16,SW,214,1.0,11.0,92,0.00,,,0.01,Wunderground v.1.15,2013-05-02 00:06:00,
2013-05-01 20:12:00,64.8,62.7,30.16,ENE,65,1.0,11.0,93,0.00,,,0.01,Wunderground v.1.15,2013-05-02 00:12:00,
2013-05-01 20:18:00,64.7,62.6,30.16,WNW,297,0.0,11.0,93,0.00,,,0.01,Wunderground v.1.15,2013-05-02 00:18:00,
2013-05-01 20:24:00,64.7,62.6,30.16,NNE,17,1.0,11.0,93,0.00,,,0.01,Wunderground v.1.15,2013-05-02 00:24:00,
2013-05-01 20:30:00,64.7,62.6,30.16,WSW,257,1.0,1.0,93,0.00,,,0.01,Wunderground v.1.15,2013-05-02 00:30:00,
2013-05-01 20:36:00,64.7,62.6,30.17,WNW,293,0.0,11.0,93,0.00,,,0.01,Wunderground v.1.15,2013-05-02 00:36:00,
2013-05-01 20:42:00,64.7,62.6,30.17,ESE,103,1.0,11.0,93,0.00,,,0.01,Wunderground v.1.15,2013-05-02 00:42:00,
2013-05-01 20:48:00,64.7,62.6,30.17,NNW,340,1.0,11.0,93,0.00,,,0.01,Wunderground v.1.15,2013-05-02 00:48:00,
2013-05-01 20:54:00,64.6,62.5,30.17,NNE,27,1.0,11.0,93,0.00,,,0.01,Wunderground v.1.15,2013-05-02 00:54:00,
2013-05-01 21:00:00,64.5,62.4,30.17,SW,225,1.0,11.0,93,0.00,,,0.01,Wunderground v.1.15,2013-05-02 01:00:00,
2013-05-01 21:06:00,64.5,62.4,30.17,NNE,27,1.0,11.0,93,0.00,,,0.01,Wunderground v.1.15,2013-05-02 01:06:00,
2013-05-01 21:12:00,64.5,62.7,30.17,East,85,1.0,11.0,94,0.00,,,0.01,Wunderground v.1.15,2013-05-02 01:12:00,
2013-05-01 21:18:00,64.5,62.7,30.18,ENE,60,1.0,11.0,94,0.00,,,0.01,Wunderground v.1.15,2013-05-02 01:18:00,
2013-05-01 21:24:00,64.5,62.7,30.18,ENE,74,1.0,11.0,94,0.00,,,0.01,Wunderground v.1.15,2013-05-02 01:24:00,
2013-05-01 21:30:00,64.5,62.7,30.18,NNW,347,1.0,1.0,94,0.00,,,0.01,Wunderground v.1.15,2013-05-02 01:30:00,
2013-05-01 21:36:00,64.5,62.7,30.18,ESE,109,0.0,11.0,94,0.00,,,0.01,Wunderground v.1.15,2013-05-02 01:36:00,
2013-05-01 21:42:00,64.5,62.7,30.18,NW,324,0.0,11.0,94,0.00,,,0.01,Wunderground v.1.15,2013-05-02 01:42:00,
2013-05-01 21:48:00,64.5,62.7,30.18,North,349,1.0,11.0,94,0.00,,,0.01,Wunderground v.1.15,2013-05-02 01:48:00,
2013-05-01 21:54:00,64.6,62.8,30.18,NE,46,1.0,11.0,94,0.00,,,0.01,Wunderground v.1.15,2013-05-02 01:54:00,
2013-05-01 22:00:00,64.6,62.8,30.18,North,357,1.0,1.0,94,0.00,,,0.01,Wunderground v.1.15,2013-05-02 02:00:00,
2013-05-01 22:06:00,64.6,62.8,30.18,ENE,72,1.0,11.0,94,0.00,,,0.01,Wunderground v.1.15,2013-05-02 02:06:00,
2013-05-01 22:12:00,64.6,62.8,30.18,East,89,1.0,2.0,94,0.00,,,0.01,Wunderground v.1.15,2013-05-02 02:12:00,
2013-05-01 22:18:00,64.6,62.8,30.18,North,354,1.0,11.0,94,0.00,,,0.01,Wunderground v.1.15,2013-05-02 02:18:00,
2013-05-01 22:24:00,64.6,62.8,30.18,WNW,292,1.0,11.0,94,0.00,,,0.01,Wunderground v.1.15,2013-05-02 02:24:00,
2013-05-01 22:30:00,64.6,62.8,30.18,East,99,1.0,11.0,94,0.00,,,0.01,Wunderground v.1.15,2013-05-02 02:30:00,
2013-05-01 22:36:00,64.5,62.7,30.18,SW,224,1.0,11.0,94,0.00,,,0.01,Wunderground v.1.15,2013-05-02 02:36:00,
2013-05-01 22:42:00,64.6,62.8,30.19,North,352,1.0,11.0,94,0.00,,,0.01,Wunderground v.1.15,2013-05-02 02:42:00,
2013-05-01 22:48:00,64.6,62.8,30.19,NNE,20,2.0,11.0,94,0.00,,,0.01,Wunderground v.1.15,2013-05-02 02:48:00,
2013-05-01 22:54:00,64.6,62.8,30.18,NNW,347,2.0,11.0,94,0.00,,,0.01,Wunderground v.1.15,2013-05-02 02:54:00,
2013-05-01 23:00:00,64.7,62.6,30.18,NNE,30,1.0,1.0,93,0.00,,,0.01,Wunderground v.1.15,2013-05-02 03:00:00,
2013-05-01 23:06:00,64.7,62.6,30.18,NNW,340,1.0,11.0,93,0.00,,,0.01,Wunderground v.1.15,2013-05-02 03:06:00,
2013-05-01 23:12:00,64.7,62.6,30.18,East,91,1.0,3.0,93,0.00,,,0.01,Wunderground v.1.15,2013-05-02 03:12:00,
2013-05-01 23:18:00,64.8,62.7,30.18,North,357,1.0,11.0,93,0.00,,,0.01,Wunderground v.1.15,2013-05-02 03:18:00,
2013-05-01 23:24:00,64.8,62.7,30.19,East,82,2.0,11.0,93,0.00,,,0.01,Wunderground v.1.15,2013-05-02 03:24:00,
2013-05-01 23:30:00,64.8,62.7,30.19,East,91,1.0,1.0,93,0.00,,,0.01,Wunderground v.1.15,2013-05-02 03:30:00,
2013-05-01 23:36:00,64.8,62.7,30.19,North,351,1.0,11.0,93,0.00,,,0.01,Wunderground v.1.15,2013-05-02 03:36:00,
2013-05-01 23:42:00,64.8,62.7,30.19,NE,42,1.0,11.0,93,0.00,,,0.01,Wunderground v.1.15,2013-05-02 03:42:00,
2013-05-01 23:48:00,64.8,62.7,30.19,WSW,253,1.0,11.0,93,0.00,,,0.01,Wunderground v.1.15,2013-05-02 03:48:00,
2013-05-01 23:54:00,64.7,62.6,30.18,ESE,106,1.0,11.0,93,0.00,,,0.01,Wunderground v.1.15,2013-05-02 03:54:00,